Cecil Field, FL

5:13 AM EDT on May 24, 2017 (GMT -0400)
Cecil

Weather History for KVQQ - March, 2014

Change the Weather History Date:

Thursday, March 20, 2014

  Actual Average (KNIP) Record (KNIP)
Temperature  
Mean Temperature 60 °F -  
Max Temperature 75 °F 72 °F 91 °F (2003)
Min Temperature 46 °F 54 °F 48 °F (2001)
Degree Days  
Heating Degree Days 4    
Growing Degree Days 10 (Base 50)    
Moisture  
Dew Point 50 °F    
Average Humidity 85    
Maximum Humidity 100    
Minimum Humidity 41    
Precipitation  
Precipitation 0.00 in - - ()
Sea Level Pressure  
Sea Level Pressure 30.07 in    
Wind  
Wind Speed 1 mph (North)    
Max Wind Speed 8 mph    
Max Gust Speed -    
Visibility 5 miles    
Events Fog    
Averages and records for this station are not official NWS values.
T = Trace of Precipitation, MM = Missing Value Source: NWS Daily Summary

Daily Weather History Graph

Daily Weather History Graph

Search for Another Location

Airport or City:

Trip Planner

Search our weather history database for the weather conditions in past years. The results will help you decide how hot, cold, wet, or windy it might be!

Date:

Astronomy

Mar. 20, 2014 Rise Set
Actual Time 7:31 AM EDT 7:38 PM EDT
Civil Twilight 7:07 AM EDT 8:02 PM EDT
Nautical Twilight 6:39 AM EDT 8:30 PM EDT
Astronomical Twilight 6:11 AM EDT 8:58 PM EDT
Moon 11:39 PM EDT (3/20) 9:53 AM EDT (3/20)
Length of Visible Light 12h 55m
Length of Day
12h 07m
Waning Gibbous, 84% of the Moon is Illuminated
Mar 20
Waning Gibbous
Mar 23
Last Quarter
Mar 30
New
Apr 7
First Quarter
Apr 15
Full

Hourly Weather History & Observations

Time (EDT) Temp. Dew Point Humidity Pressure Visibility Wind Dir Wind Speed Gust Speed Precip Events Conditions
12:15 AM 48.2 °F 46.4 °F 93% 30.11 in 0.2 mi Calm Calm - N/A Fog Fog
12:35 AM 46.4 °F 46.4 °F 100% 30.11 in 0.2 mi Calm Calm - N/A Fog Fog
12:55 AM 46.4 °F 46.4 °F 100% 30.11 in 0.2 mi Calm Calm - N/A Fog Fog
1:15 AM 48.2 °F 48.2 °F 100% 30.11 in 0.2 mi Calm Calm - N/A Fog Fog
1:35 AM 48.2 °F 48.2 °F 100% 30.11 in 0.2 mi Calm Calm - N/A Fog Fog
1:55 AM 48.2 °F 48.2 °F 100% 30.11 in 0.2 mi Calm Calm - N/A Fog Fog
2:15 AM 48.2 °F 48.2 °F 100% 30.10 in 0.2 mi Calm Calm - N/A Fog Fog
2:35 AM 46.4 °F 46.4 °F 100% 30.08 in 0.2 mi Calm Calm - N/A Fog Fog
2:55 AM 46.4 °F 46.4 °F 100% 30.08 in 0.2 mi Calm Calm - N/A Fog Fog
3:15 AM 46.4 °F 46.4 °F 100% 30.08 in 0.2 mi Calm Calm - N/A Fog Fog
3:35 AM 48.2 °F 48.2 °F 100% 30.08 in 0.2 mi Calm Calm - N/A Fog Fog
3:55 AM 46.4 °F 46.4 °F 100% 30.07 in 0.2 mi Calm Calm - N/A Fog Fog
4:15 AM 46.4 °F 46.4 °F 100% 30.07 in 0.2 mi Calm Calm - N/A Fog Fog
4:35 AM 46.4 °F 46.4 °F 100% 30.07 in 0.2 mi Calm Calm - N/A Fog Fog
4:55 AM 46.4 °F 46.4 °F 100% 30.08 in 0.2 mi Calm Calm - N/A Fog Fog
5:15 AM 46.4 °F 46.4 °F 100% 30.07 in 0.2 mi Calm Calm - N/A Fog Fog
5:35 AM 46.4 °F 46.4 °F 100% 30.08 in 0.2 mi Calm Calm - N/A Fog Fog
5:55 AM 48.2 °F 48.2 °F 100% 30.08 in 0.2 mi Calm Calm - N/A Fog Fog
6:15 AM 46.4 °F 46.4 °F 100% 30.09 in 0.2 mi Calm Calm - N/A Fog Fog
6:35 AM 46.4 °F 46.4 °F 100% 30.09 in 0.2 mi Calm Calm - N/A Fog Fog
6:50 AM 46.4 °F 46.4 °F 100% 30.09 in 0.2 mi Calm Calm - N/A Fog Fog
7:50 AM 46.4 °F 46.4 °F 100% 30.11 in 0.1 mi Calm Calm - N/A Fog Fog
8:25 AM 46.4 °F 46.4 °F 100% 30.11 in 0.2 mi Calm Calm - N/A Fog Fog
8:50 AM 46.4 °F 46.4 °F 100% 30.11 in 0.2 mi Calm Calm - N/A Fog Fog
9:20 AM 50.0 °F 50.0 °F 100% 30.12 in 3.0 mi Calm Calm - N/A   Clear
9:50 AM 53.6 °F 53.6 °F 100% 30.13 in 10.0 mi Calm Calm - N/A   Clear
10:50 AM 64.4 °F 53.6 °F 68% 30.12 in 10.0 mi Calm Calm - N/A   Clear
11:50 AM 68.0 °F 55.4 °F 64% 30.11 in 10.0 mi Variable 4.6 mph - N/A   Clear
12:50 PM 71.6 °F 53.6 °F 53% 30.09 in 10.0 mi Calm Calm - N/A   Clear
1:50 PM 73.4 °F 51.8 °F 47% 30.06 in 10.0 mi North 8.1 mph - N/A   Scattered Clouds
2:50 PM 73.4 °F 50.0 °F 44% 30.04 in 10.0 mi Variable 5.8 mph - N/A   Scattered Clouds
3:50 PM 73.4 °F 50.0 °F 44% 30.02 in 10.0 mi Calm Calm - N/A   Scattered Clouds
4:50 PM 75.2 °F 50.0 °F 41% 30.00 in 10.0 mi Calm Calm - N/A   Scattered Clouds
5:50 PM 75.2 °F 50.0 °F 41% 30.00 in 10.0 mi NNW 8.1 mph - N/A   Partly Cloudy
6:50 PM 73.4 °F 50.0 °F 44% 30.00 in 10.0 mi NNW 8.1 mph - N/A   Partly Cloudy
7:50 PM 69.8 °F 51.8 °F 53% 30.01 in 10.0 mi Calm Calm - N/A   Clear
8:15 PM 66.2 °F 53.6 °F 64% 30.02 in 10.0 mi ESE 4.6 mph - N/A   Clear
8:35 PM 64.4 °F 51.8 °F 64% 30.03 in 10.0 mi Calm Calm - N/A   Clear
8:55 PM 62.6 °F 53.6 °F 72% 30.03 in 10.0 mi Calm Calm - N/A   Clear
9:15 PM 60.8 °F 53.6 °F 77% 30.04 in 10.0 mi Calm Calm - N/A   Clear
9:35 PM 59.0 °F 53.6 °F 82% 30.05 in 10.0 mi Calm Calm - N/A   Clear
9:55 PM 57.2 °F 53.6 °F 88% 30.05 in 10.0 mi Calm Calm - N/A   Clear
10:15 PM 55.4 °F 53.6 °F 94% 30.06 in 10.0 mi Calm Calm - N/A   Clear
10:35 PM 55.4 °F 51.8 °F 88% 30.07 in 10.0 mi Calm Calm - N/A   Clear
10:55 PM 55.4 °F 53.6 °F 94% 30.07 in 10.0 mi Calm Calm - N/A   Clear
11:15 PM 53.6 °F 51.8 °F 94% 30.08 in 10.0 mi Calm Calm - N/A   Clear
11:35 PM 55.4 °F 50.0 °F 82% 30.08 in 10.0 mi South 3.5 mph - N/A   Clear
11:55 PM 57.2 °F 51.8 °F 82% 30.08 in 10.0 mi South 3.5 mph - N/A   Clear